Dades meteomassalio
Diari Summary for Juny 3, 2017 Units:  Metric    English   Both
« Previous Day
Next Day »
Diari Semanal Mensual Anual Personalitzat
  Maxima: Minima: Mijana:
Temperatura: -17.8 °C -7.9 °C -6.8 °C
Rosada: -17.8 °C -9.8 °C -8.4 °C
Humitat: Humidity % 52 % 84 %
Velocitat del vent: 0 km/h 0 km/h 10.8 km/h
Racha vent: 0 km/h - -
Vent:- - SW
Pressio: 0 hPa 34303.6 hPa -
Pluja: 180.34 mm    
Historical Graphs
 
 
Tabular Data for Juny 3, 2017
Time Temperature Dew Point Pressure Wind Wind Speed Wind Gust Humidity Rainfall Rate (Hourly) solar Conditions
-17.8 °C -17.8 °C 0 hPa Calm     Humidity % 0 mm SolarRadiationWatts/m^2 W/m2 Conditions
00:01 -7.2 °C -8.1 °C 34405.1 hPa Calm     90 % 38.1 mm 0.0 W/m2 RA
00:06 -7.2 °C -8.1 °C 34405.1 hPa Calm     90 % 38.1 mm 0.0 W/m2 CLR
00:11 -7.2 °C -8.1 °C 34405.1 hPa Calm     90 % 38.1 mm 0.0 W/m2 RA
00:16 -7.2 °C -8.1 °C 34405.1 hPa NNW 26.9 km/h 26.9 km/h 90 % 38.1 mm 0.0 W/m2
00:21 -7.2 °C -8.1 °C 34418.7 hPa NW 11.9 km/h 11.9 km/h 90 % 38.1 mm 0.0 W/m2 CLR
00:26 -7.2 °C -8.2 °C 34418.7 hPa Calm     90 % 38.1 mm 0.0 W/m2 CLR
00:31 -7.3 °C -8.2 °C 34428.8 hPa NW 20.8 km/h 20.8 km/h 90 % 33.02 mm 0.0 W/m2 CLR
00:36 -7.3 °C -8.2 °C 34452.6 hPa WNW 20.9 km/h 20.9 km/h 90 % 33.02 mm 0.0 W/m2 CLR
00:41 -7.3 °C -8.2 °C 34442.4 hPa WNW 11.9 km/h 11.9 km/h 90 % 25.4 mm 0.0 W/m2 CLR
00:46 -7.3 °C -8.2 °C 34442.4 hPa Calm     90 % 12.7 mm 0.0 W/m2 CLR
00:51 -7.3 °C -8.2 °C 34452.6 hPa Calm     90 % 7.62 mm 0.0 W/m2 CLR
00:56 -7.3 °C -8.2 °C 34452.6 hPa Calm     90 % 7.62 mm 0.0 W/m2 CLR
01:01 -7.3 °C -8.2 °C 34452.6 hPa Calm     90 % 7.62 mm 0.0 W/m2 CLR
01:06 -7.3 °C -8.2 °C 34452.6 hPa Calm     90 % 7.62 mm 0.0 W/m2 CLR
01:11 -7.3 °C -8.2 °C 34452.6 hPa Calm     91 % 0 mm 0.0 W/m2 CLR
01:16 -7.3 °C -8.2 °C 34452.6 hPa Calm     91 % 0 mm 0.0 W/m2 CLR
01:21 -7.3 °C -8.2 °C 34462.7 hPa Calm     91 % 0 mm 0.0 W/m2 CLR
01:26 -7.3 °C -8.2 °C 34462.7 hPa Calm     91 % 0 mm 0.0 W/m2 CLR
01:31 -7.3 °C -8.2 °C 34462.7 hPa Calm     91 % 0 mm 0.0 W/m2 CLR
01:36 -7.4 °C -8.2 °C 34462.7 hPa Calm     91 % 0 mm 0.0 W/m2 CLR
01:41 -7.4 °C -8.2 °C 34462.7 hPa West 9 km/h 9 km/h 91 % 0 mm 0.0 W/m2 CLR
01:46 -7.4 °C -8.2 °C 34462.7 hPa WNW 12.9 km/h 12.9 km/h 91 % 0 mm 0.0 W/m2 CLR
01:51 -7.3 °C -8.2 °C 34462.7 hPa West 9 km/h 9 km/h 91 % 0 mm 0.0 W/m2 CLR
01:56 -7.3 °C -8.3 °C 34452.6 hPa West 9 km/h   90 % 0 mm 0.0 W/m2 CLR
02:01 -7.3 °C -8.2 °C 34462.7 hPa WSW 20.8 km/h 20.8 km/h 90 % 0 mm 0.0 W/m2 CLR
02:06 -7.3 °C -8.2 °C 34462.7 hPa West 29.8 km/h 29.8 km/h 90 % 0 mm 0.0 W/m2 CLR
02:11 -7.2 °C -8.2 °C 34452.6 hPa West 18.2 km/h 18.2 km/h 89 % 0 mm 0.0 W/m2 CLR
02:16 -7.1 °C -8.2 °C 34452.6 hPa West 18.2 km/h 18.2 km/h 89 % 0 mm 0.0 W/m2 CLR
02:19 -7.1 °C -8.1 °C 34452.6 hPa West 17.9 km/h 17.9 km/h 89 % 0 mm 0.0 W/m2 CLR
02:24 -7.1 °C -8.1 °C 34452.6 hPa WNW 17.9 km/h 17.9 km/h 89 % 0 mm 0.0 W/m2 CLR
02:29 -7.1 °C -8.1 °C 34452.6 hPa WNW 23.8 km/h 23.8 km/h 89 % 0 mm 0.0 W/m2 CLR
02:34 -7.1 °C -8 °C 34452.6 hPa NW 26.9 km/h 26.9 km/h 90 % 0 mm 0.0 W/m2 CLR
02:39 -7.2 °C -8.1 °C 34452.6 hPa WNW 23.8 km/h 23.8 km/h 90 % 0 mm 0.0 W/m2 CLR
02:44 -7.2 °C -8.1 °C 34452.6 hPa WNW 15 km/h 15 km/h 90 % 0 mm 0.0 W/m2 CLR
02:49 -7.2 °C -8.1 °C 34452.6 hPa Calm     90 % 0 mm 0.0 W/m2 CLR
02:54 -7.2 °C -8 °C 34452.6 hPa Calm     91 % 0 mm 0.0 W/m2 CLR
02:59 -7.2 °C -8.1 °C 34452.6 hPa Calm     91 % 0 mm 0.0 W/m2 CLR
03:04 -7.2 °C -8.1 °C 34452.6 hPa Calm     91 % 0 mm 0.0 W/m2 CLR
03:09 -7.3 °C -8.1 °C 34442.4 hPa SW 9 km/h   91 % 0 mm 0.0 W/m2 CLR
03:14 -7.3 °C -8.2 °C 34442.4 hPa Calm     91 % 0 mm 0.0 W/m2 CLR
03:19 -7.3 °C -8.2 °C 34442.4 hPa Calm     91 % 0 mm 0.0 W/m2 CLR
03:24 -7.4 °C -8.2 °C 34442.4 hPa Calm     91 % 0 mm 0.0 W/m2 CLR
03:29 -7.4 °C -8.2 °C 34442.4 hPa Calm     91 % 0 mm 0.0 W/m2 CLR
03:34 -7.4 °C -8.2 °C 34428.8 hPa Calm     91 % 0 mm 0.0 W/m2 CLR
03:39 -7.4 °C -8.3 °C 34428.8 hPa Calm     91 % 0 mm 0.0 W/m2 CLR
03:44 -7.4 °C -8.3 °C 34428.8 hPa Calm     91 % 0 mm 0.0 W/m2 CLR
03:49 -7.4 °C -8.3 °C 34418.7 hPa Calm     91 % 0 mm 0.0 W/m2 CLR
03:54 -7.4 °C -8.3 °C 34418.7 hPa Calm     91 % 12.7 mm 0.0 W/m2 RA
03:59 -7.4 °C -8.3 °C 34405.1 hPa Calm     91 % 12.7 mm 0.0 W/m2
04:04 -7.4 °C -8.3 °C 34405.1 hPa SSE 12.9 km/h 12.9 km/h 91 % 12.7 mm 0.0 W/m2 CLR
04:09 -7.4 °C -8.3 °C 34405.1 hPa SE 11.9 km/h 11.9 km/h 91 % 12.7 mm 0.0 W/m2 CLR
04:14 -7.5 °C -8.3 °C 34395 hPa SSE 9 km/h 9.8 km/h 91 % 12.7 mm 0.0 W/m2 CLR
04:20 -7.6 °C -8.4 °C 34395 hPa SE 10.3 km/h 10.3 km/h 91 % 12.7 mm 0.0 W/m2 CLR
04:25 -7.5 °C -8.3 °C 34384.8 hPa SE 11.9 km/h 11.9 km/h 91 % 12.7 mm 0.0 W/m2 CLR
04:30 -7.6 °C -8.4 °C 34395 hPa South 23.8 km/h 23.8 km/h 91 % 12.7 mm 0.0 W/m2 CLR
04:35 -7.6 °C -8.4 °C 34384.8 hPa SSE 15 km/h 15 km/h 91 % 12.7 mm 0.0 W/m2 CLR
04:40 -7.6 °C -8.4 °C 34384.8 hPa SSE 23.8 km/h 23.8 km/h 91 % 12.7 mm 0.0 W/m2 CLR
04:45 -7.6 °C -8.4 °C 34384.8 hPa South 23.8 km/h 23.8 km/h 91 % 12.7 mm 0.0 W/m2 CLR
04:50 -7.4 °C -8.4 °C 34371.3 hPa SSE 20.9 km/h 20.9 km/h 90 % 12.7 mm 0.0 W/m2 CLR
04:55 -7.4 °C -8.4 °C 34371.3 hPa Calm     90 % 0 mm 0.0 W/m2 CLR
05:00 -7.4 °C -8.4 °C 34371.3 hPa Calm     90 % 0 mm 0.0 W/m2 CLR
05:05 -7.4 °C -8.4 °C 34361.1 hPa SE 7.7 km/h 7.7 km/h 90 % 0 mm 0.0 W/m2 CLR
05:10 -7.5 °C -8.4 °C 34361.1 hPa South 11.9 km/h 11.9 km/h 90 % 0 mm 0.0 W/m2 CLR
05:15 -7.6 °C -8.4 °C 34361.1 hPa South 17.9 km/h 17.9 km/h 90 % 0 mm 0.0 W/m2 CLR
05:20 -7.6 °C -8.4 °C 34361.1 hPa Calm     90 % 0 mm 0.0 W/m2 CLR
05:25 -7.6 °C -8.4 °C 34361.1 hPa Calm     90 % 0 mm 0.0 W/m2 CLR
05:30 -7.6 °C -8.5 °C 34361.1 hPa Calm     90 % 0 mm 0.0 W/m2 CLR
05:35 -7.6 °C -8.4 °C 34361.1 hPa Calm     91 % 0 mm 0.0 W/m2 CLR
05:40 -7.6 °C -8.4 °C 34361.1 hPa SSE 10.3 km/h 10.3 km/h 91 % 0 mm 0.0 W/m2 CLR
05:45 -7.6 °C -8.4 °C 34361.1 hPa Calm     91 % 0 mm 0.0 W/m2 CLR
05:50 -7.6 °C -8.4 °C 34361.1 hPa Calm     91 % 0 mm 0.0 W/m2 CLR
05:55 -7.6 °C -8.4 °C 34361.1 hPa Calm     91 % 0 mm 0.0 W/m2 CLR
06:00 -7.6 °C -8.4 °C 34361.1 hPa Calm     91 % 0 mm 0.0 W/m2 CLR
06:05 -7.6 °C -8.4 °C 34361.1 hPa Calm     91 % 0 mm 0.0 W/m2 CLR
06:10 -7.6 °C -8.4 °C 34371.3 hPa Calm     91 % 0 mm 0.0 W/m2 CLR
06:11 -7.6 °C -8.4 °C 34371.3 hPa Calm     91 % 0 mm 0.0 W/m2 CLR
06:16 -7.6 °C -8.4 °C 34371.3 hPa West 6 km/h   91 % 0 mm 0.0 W/m2 CLR
06:21 -7.6 °C -8.4 °C 34371.3 hPa Calm     91 % 0 mm 0.0 W/m2 OVC
06:26 -7.6 °C -8.4 °C 34361.1 hPa Calm     91 % 0 mm 0.0 W/m2 OVC
06:31 -7.6 °C -8.4 °C 34361.1 hPa Calm     91 % 0 mm 0.0 W/m2 OVC
06:36 -7.6 °C -8.4 °C 34361.1 hPa Calm     91 % 7.62 mm 0.0 W/m2 RA
06:41 -7.6 °C -8.4 °C 34371.3 hPa Calm     91 % 7.62 mm 0.0 W/m2 CLR
06:46 -7.6 °C -8.4 °C 34384.8 hPa WSW 10.3 km/h 10.3 km/h 91 % 7.62 mm 0.0 W/m2 OVC
06:48 -7.7 °C -8.5 °C 34384.8 hPa WSW 12.9 km/h 12.9 km/h 91 % 7.62 mm 0.0 W/m2 OVC
06:53 -7.7 °C -8.5 °C 34395 hPa WSW 26.9 km/h 26.9 km/h 91 % 7.62 mm 5.0 W/m2 OVC
06:58 -7.7 °C -8.5 °C 34395 hPa WSW 26.9 km/h 26.9 km/h 91 % 7.62 mm 5.0 W/m2 OVC
07:03 -7.7 °C -8.4 °C 34405.1 hPa WSW 28.5 km/h 28.5 km/h 92 % 7.62 mm 5.0 W/m2 OVC
07:08 -7.7 °C -8.5 °C 34395 hPa Calm     91 % 7.62 mm 0.0 W/m2 OVC
07:13 -7.7 °C -8.5 °C 34395 hPa Calm     91 % 7.62 mm 0.0 W/m2 OVC
07:18 -7.7 °C -8.5 °C 34395 hPa Calm     91 % 12.7 mm 0.0 W/m2 RA
07:23 -7.7 °C -8.5 °C 34384.8 hPa ESE 15 km/h 15 km/h 91 % 12.7 mm 0.0 W/m2 RA
07:28 -7.7 °C -8.5 °C 34371.3 hPa ESE 15.6 km/h 15.6 km/h 91 % 20.32 mm 0.0 W/m2 RA
07:33 -7.7 °C -8.4 °C 34361.1 hPa SE 15 km/h 15 km/h 92 % 20.32 mm 0.0 W/m2 RA
07:38 -7.7 °C -8.4 °C 34384.8 hPa West 20.9 km/h 20.9 km/h 92 % 25.4 mm 7.0 W/m2 RA
07:43 -7.7 °C -8.4 °C 34395 hPa West 17.9 km/h 17.9 km/h 92 % 25.4 mm 12.0 W/m2 BKN
07:48 -7.7 °C -8.4 °C 34395 hPa Calm     92 % 33.02 mm 23.0 W/m2 RA
07:53 -7.7 °C -8.4 °C 34384.8 hPa Calm     92 % 33.02 mm 30.0 W/m2 BKN
07:58 -7.7 °C -8.4 °C 34384.8 hPa NNE 15 km/h 15 km/h 92 % 33.02 mm 35.0 W/m2 BKN
08:03 -7.7 °C -8.4 °C 34371.3 hPa North 26.9 km/h 26.9 km/h 92 % 33.02 mm 46.0 W/m2 BKN
08:08 -7.7 °C -8.4 °C 34384.8 hPa Calm     92 % 33.02 mm 63.0 W/m2 SCT
08:13 -7.6 °C -8.4 °C 34395 hPa Calm     92 % 33.02 mm 81.0 W/m2 SCT
08:18 -7.6 °C -8.3 °C 34418.7 hPa West 26.9 km/h 26.9 km/h 92 % 25.4 mm 90.0 W/m2 FEW
08:23 -7.5 °C -8.2 °C 34418.7 hPa NW 29.8 km/h 29.8 km/h 92 % 20.32 mm 74.0 W/m2 CLR
08:28 -7.6 °C -8.4 °C 34395 hPa Calm     91 % 12.7 mm 32.0 W/m2 FEW
08:33 -7.6 °C -8.3 °C 34384.8 hPa Calm     92 % 12.7 mm 25.0 W/m2 BKN
08:38 -7.6 °C -8.3 °C 34371.3 hPa Calm     92 % 12.7 mm 39.0 W/m2 RA
08:43 -7.6 °C -8.3 °C 34371.3 hPa Calm     92 % 12.7 mm 56.0 W/m2 RA
08:48 -7.6 °C -8.3 °C 34371.3 hPa Calm     92 % 12.7 mm 77.0 W/m2 SCT
08:53 -7.6 °C -8.3 °C 34371.3 hPa Calm     92 % 12.7 mm 113.0 W/m2 FEW
08:58 -7.5 °C -8.2 °C 34371.3 hPa Calm     92 % 12.7 mm 171.0 W/m2 CLR
09:03 -7.4 °C -8.2 °C 34371.3 hPa Calm     92 % 12.7 mm 185.0 W/m2 CLR
09:08 -7.4 °C -8.2 °C 34384.8 hPa Calm     92 % 12.7 mm 95.0 W/m2 CLR
09:13 -7.4 °C -8.2 °C 34395 hPa ENE 12.9 km/h 12.9 km/h 92 % 12.7 mm 30.0 W/m2 FEW
09:18 -7.4 °C -8.2 °C 34395 hPa ENE 17.9 km/h 17.9 km/h 92 % 12.7 mm 18.0 W/m2 SCT
09:23 -7.4 °C -8.1 °C 34395 hPa West 15 km/h 15 km/h 92 % 12.7 mm 12.0 W/m2 BKN
09:28 -7.4 °C -8.2 °C 34405.1 hPa WSW 23.3 km/h 23.3 km/h 92 % 12.7 mm 11.0 W/m2 BKN
09:33 -7.4 °C -8.2 °C 34405.1 hPa SW 17.9 km/h 17.9 km/h 92 % 12.7 mm 12.0 W/m2 BKN
09:38 -7.5 °C -8.2 °C 34418.7 hPa WSW 26.9 km/h 26.9 km/h 92 % 7.62 mm 19.0 W/m2 BKN
09:48 -7.6 °C -8.3 °C 34405.1 hPa Calm     92 % 7.62 mm 44.0 W/m2 BKN
09:53 -7.5 °C -8.2 °C 34405.1 hPa Calm     92 % 7.62 mm 53.0 W/m2 BKN
09:58 -7.4 °C -8.2 °C 34395 hPa Calm     92 % 7.62 mm 65.0 W/m2 SCT
10:03 -7.4 °C -8.2 °C 34395 hPa Calm     92 % 7.62 mm 83.0 W/m2 FEW
10:08 -7.4 °C -8.2 °C 34395 hPa Calm     92 % 12.7 mm 81.0 W/m2 RA
10:13 -7.4 °C -8.2 °C 34395 hPa Calm     92 % 12.7 mm 91.0 W/m2 FEW
10:18 -7.4 °C -8.1 °C 34395 hPa Calm     92 % 12.7 mm 204.0 W/m2 CLR
10:23 -7.3 °C -8.1 °C 34395 hPa Calm     92 % 12.7 mm 195.0 W/m2 CLR
10:28 -7.3 °C -8 °C 34395 hPa Calm     92 % 12.7 mm 86.0 W/m2 CLR
10:33 -7.3 °C -8 °C 34395 hPa Calm     92 % 12.7 mm 25.0 W/m2 FEW
10:38 -7.3 °C -8.2 °C 34395 hPa SSE 3.1 km/h   91 % 12.7 mm 23.0 W/m2 BKN
10:43 -7.4 °C -8.3 °C 34384.8 hPa SE 11.9 km/h 11.9 km/h 91 % 38.1 mm 40.0 W/m2 RA
10:48 -7.4 °C -8.3 °C 34371.3 hPa ESE 7.7 km/h 7.7 km/h 91 % 58.42 mm 53.0 W/m2 RA
10:53 -7.6 °C -8.4 °C 34384.8 hPa SE 6 km/h   91 % 58.42 mm 165.0 W/m2 SCT
10:58 -7.6 °C -8.3 °C 34384.8 hPa Calm     92 % 58.42 mm 137.0 W/m2 CLR
11:03 -7.6 °C -8.3 °C 34395 hPa Calm     92 % 58.42 mm 49.0 W/m2 CLR
11:08 -7.6 °C -8.4 °C 34384.8 hPa Calm     91 % 50.8 mm 91.0 W/m2 RA
11:13 -7.6 °C -8.4 °C 34395 hPa Calm     91 % 63.5 mm 227.0 W/m2 RA
11:18 -7.6 °C -8.3 °C 34395 hPa Calm     92 % 63.5 mm 239.0 W/m2 CLR
11:23 -7.5 °C -8.2 °C 34395 hPa Calm     92 % 63.5 mm 105.0 W/m2 CLR
11:28 -7.4 °C -8.3 °C 34405.1 hPa WSW 10.3 km/h 10.3 km/h 91 % 63.5 mm 70.0 W/m2 CLR
11:33 -7.4 °C -8.3 °C 34395 hPa Calm     91 % 63.5 mm 88.0 W/m2 FEW
11:39 -7.4 °C -8.2 °C 34405.1 hPa Calm     91 % 63.5 mm 121.0 W/m2 CLR
11:44 -7.3 °C -8.1 °C 34405.1 hPa Calm     91 % 38.1 mm 62.0 W/m2 CLR
11:49 -7.3 °C -8.1 °C 34418.7 hPa Calm     91 % 33.02 mm 93.0 W/m2 RA
11:54 -7.3 °C -8.1 °C 34418.7 hPa Calm     91 % 33.02 mm 135.0 W/m2 FEW
11:59 -7.2 °C -8 °C 34442.4 hPa WNW 20.9 km/h 20.9 km/h 91 % 33.02 mm 79.0 W/m2 CLR
12:04 -7.2 °C -8.1 °C 34476.3 hPa WNW 44.7 km/h 44.7 km/h 90 % 33.02 mm 83.0 W/m2 CLR
12:09 -7.2 °C -8.1 °C 34452.6 hPa NNW 29.8 km/h 29.8 km/h 90 % 25.4 mm 81.0 W/m2 FEW
12:14 -7.2 °C -8.1 °C 34462.7 hPa NW 32.8 km/h 32.8 km/h 90 % 12.7 mm 30.0 W/m2 FEW
12:19 -7.2 °C -8 °C 34452.6 hPa North 17.9 km/h 17.9 km/h 91 % 12.7 mm 30.0 W/m2 SCT
12:24 -7.2 °C -8 °C 34452.6 hPa Calm     91 % 20.32 mm 40.0 W/m2 RA
12:29 -7.2 °C -8.1 °C 34442.4 hPa Calm     91 % 25.4 mm 70.0 W/m2 RA
12:34 -7.2 °C -8 °C 34442.4 hPa Calm     91 % 33.02 mm 176.0 W/m2 RA
12:39 -7.1 °C -7.9 °C 34442.4 hPa Calm     91 % 33.02 mm 378.0 W/m2 CLR
12:44 -7 °C -7.7 °C 34442.4 hPa Calm     92 % 33.02 mm 271.0 W/m2 CLR
12:49 -7 °C -7.8 °C 34442.4 hPa East 6 km/h 6 km/h 91 % 20.32 mm 272.0 W/m2 CLR
12:54 -6.9 °C -7.6 °C 34428.8 hPa ESE 5.1 km/h   92 % 20.32 mm 241.0 W/m2 CLR
12:59 -6.9 °C -7.7 °C 34428.8 hPa ENE 6 km/h 6 km/h 91 % 20.32 mm 174.0 W/m2 CLR
13:04 -6.9 °C -7.6 °C 34418.7 hPa Calm     92 % 20.32 mm 155.0 W/m2 CLR
13:09 -6.9 °C -7.8 °C 34418.7 hPa Calm     91 % 20.32 mm 98.0 W/m2 CLR
13:14 -6.9 °C -7.8 °C 34428.8 hPa Calm     91 % 20.32 mm 70.0 W/m2 CLR
13:19 -7.1 °C -7.9 °C 34428.8 hPa Calm     91 % 12.7 mm 56.0 W/m2 FEW
13:24 -7 °C -7.8 °C 34418.7 hPa SE 17.9 km/h 17.9 km/h 91 % 12.7 mm 44.0 W/m2 SCT
13:29 -7.1 °C -7.9 °C 34418.7 hPa SE 17.9 km/h 17.9 km/h 91 % 7.62 mm 44.0 W/m2 SCT
13:34 -7 °C -7.8 °C 34405.1 hPa SSE 12.9 km/h 12.9 km/h 91 % 0 mm 72.0 W/m2 SCT
13:39 -7.1 °C -7.9 °C 34405.1 hPa SE 23.8 km/h 23.8 km/h 90 % 0 mm 116.0 W/m2 FEW
13:44 -7.1 °C -7.9 °C 34405.1 hPa SSE 10.3 km/h 10.3 km/h 90 % 0 mm 225.0 W/m2 CLR
13:49 -7 °C -7.9 °C 34405.1 hPa Calm     90 % 0 mm 211.0 W/m2 CLR
13:54 -7.1 °C -7.9 °C 34405.1 hPa SSW 20.9 km/h 20.9 km/h 90 % 0 mm 236.0 W/m2 CLR
13:59 -7 °C -7.9 °C 34418.7 hPa Calm     90 % 0 mm 192.0 W/m2 CLR
14:04 -7 °C -8 °C 34442.4 hPa SW 18.2 km/h 18.2 km/h 89 % 0 mm 134.0 W/m2 CLR
14:09 -6.9 °C -8 °C 34452.6 hPa WSW 20.9 km/h 20.9 km/h 89 % 0 mm 171.0 W/m2 CLR
14:14 -6.9 °C -8.1 °C 34442.4 hPa SSW 15 km/h 15 km/h 88 % 0 mm 229.0 W/m2 CLR
14:19 -6.8 °C -8 °C 34452.6 hPa SW 20.9 km/h 20.9 km/h 88 % 0 mm 269.0 W/m2 CLR
14:24 -6.8 °C -7.8 °C 34442.4 hPa SW 23.8 km/h 23.8 km/h 89 % 0 mm 345.0 W/m2 CLR
14:29 -6.7 °C -7.7 °C 34428.8 hPa SW 15 km/h 15 km/h 89 % 0 mm 327.0 W/m2 CLR
14:39 -6.6 °C -7.7 °C 34418.7 hPa SSW 6 km/h 6 km/h 88 % 7.62 mm 464.0 W/m2 RA
14:44 -6.4 °C -7.7 °C 34384.8 hPa SE 17.9 km/h 17.9 km/h 87 % 7.62 mm 264.0 W/m2 CLR
14:49 -6.3 °C -7.6 °C 34371.3 hPa SE 31.1 km/h 31.1 km/h 87 % 7.62 mm 179.0 W/m2 CLR
14:54 -6.5 °C -7.7 °C 34361.1 hPa SSE 38.8 km/h 38.8 km/h 87 % 7.62 mm 165.0 W/m2 CLR
14:59 -6.6 °C -7.8 °C 34337.4 hPa South 20.9 km/h 20.9 km/h 87 % 7.62 mm 243.0 W/m2 CLR
15:04 -6.4 °C -7.7 °C 34327.3 hPa SE 35.7 km/h 35.7 km/h 87 % 7.62 mm 287.0 W/m2 CLR
15:09 -6.4 °C -7.7 °C 34327.3 hPa SE 17.9 km/h 17.9 km/h 86 % 7.62 mm 445.0 W/m2 CLR
15:14 -6.2 °C -7.7 °C 34327.3 hPa SSE 11.9 km/h 11.9 km/h 85 % 7.62 mm 464.0 W/m2 CLR
15:19 -6.1 °C -7.7 °C 34327.3 hPa South 18.2 km/h 18.2 km/h 83 % 7.62 mm 322.0 W/m2 CLR
15:24 -5.9 °C -7.9 °C 34337.4 hPa SSE 20.9 km/h 20.9 km/h 80 % 7.62 mm 338.0 W/m2 CLR
15:29 -5.7 °C -7.7 °C 34337.4 hPa South 23.8 km/h 23.8 km/h 80 % 7.62 mm 846.0 W/m2 CLR
15:34 -5.5 °C -7.7 °C 34337.4 hPa South 17.9 km/h 17.9 km/h 79 % 7.62 mm 889.0 W/m2 CLR
15:39 -5.3 °C -7.6 °C 34337.4 hPa SSW 15.6 km/h 15.6 km/h 78 % 0 mm 868.0 W/m2 CLR
15:44 -5.1 °C -7.6 °C 34327.3 hPa South 9 km/h 9 km/h 76 % 0 mm 889.0 W/m2 CLR
15:49 -4.9 °C -7.4 °C 34327.3 hPa South 23.3 km/h 23.3 km/h 76 % 0 mm 909.0 W/m2 CLR
15:54 -4.8 °C -8 °C 34327.3 hPa South 20.8 km/h 20.8 km/h 70 % 0 mm 877.0 W/m2 CLR
15:59 -4.7 °C -8 °C 34327.3 hPa South 15.6 km/h 15.6 km/h 69 % 0 mm 835.0 W/m2 CLR
16:04 -4.6 °C -9 °C 34327.3 hPa South 18.2 km/h 18.2 km/h 61 % 0 mm 819.0 W/m2 CLR
16:09 -4.4 °C -9 °C 34327.3 hPa SW 3.1 km/h   60 % 0 mm 807.0 W/m2 CLR
16:14 -4.3 °C -8.9 °C 34327.3 hPa Calm     60 % 0 mm 817.0 W/m2 CLR
16:19 -4.1 °C -9.2 °C 34327.3 hPa SSW 11.9 km/h 11.9 km/h 57 % 0 mm 803.0 W/m2 CLR
16:24 -4 °C -9.1 °C 34337.4 hPa Calm     57 % 0 mm 789.0 W/m2 CLR
16:29 -3.8 °C -9.2 °C 34327.3 hPa Calm     55 % 0 mm 779.0 W/m2 CLR
16:34 -3.7 °C -9.1 °C 34327.3 hPa Calm     55 % 0 mm 779.0 W/m2 CLR
16:39 -3.5 °C -9.2 °C 34313.7 hPa Calm     53 % 0 mm 770.0 W/m2 CLR
16:44 -3.5 °C -8.7 °C 34313.7 hPa East 9 km/h 9 km/h 56 % 0 mm 758.0 W/m2 CLR
16:49 -3.5 °C -8.9 °C 34303.6 hPa East 9 km/h 9 km/h 55 % 0 mm 745.0 W/m2 CLR
16:54 -3.5 °C -8.6 °C 34313.7 hPa North 3.1 km/h   57 % 0 mm 728.0 W/m2 CLR
17:00 -3.4 °C -8.8 °C 34313.7 hPa NNW 3.1 km/h 3.1 km/h 55 % 0 mm 708.0 W/m2 CLR
17:05 -3.2 °C -8.2 °C 34313.7 hPa NNE 11.9 km/h 11.9 km/h 58 % 0 mm 684.0 W/m2 CLR
17:10 -3.2 °C -8.4 °C 34313.7 hPa NE 9 km/h 9 km/h 56 % 0 mm 694.0 W/m2 CLR
17:15 -3.2 °C -9.1 °C 34327.3 hPa Calm     52 % 0 mm 687.0 W/m2 CLR
17:20 -3.1 °C -8.5 °C 34313.7 hPa Calm     55 % 0 mm 691.0 W/m2 CLR
17:25 -2.9 °C -8.2 °C 34313.7 hPa Calm     56 % 0 mm 693.0 W/m2 CLR
17:30 -2.9 °C -8.8 °C 34313.7 hPa NNE 3.1 km/h   52 % 0 mm 462.0 W/m2 CLR
17:35 -2.9 °C -8.7 °C 34313.7 hPa Calm     53 % 0 mm 563.0 W/m2 CLR
17:40 -2.9 °C -8.5 °C 34313.7 hPa Calm     54 % 0 mm 696.0 W/m2 CLR
17:45 -2.9 °C -8.8 °C 34327.3 hPa Calm     52 % 0 mm 652.0 W/m2 CLR
17:50 -2.7 °C -8.2 °C 34327.3 hPa Calm   0.3 km/h 55 % 0 mm 566.0 W/m2 CLR
17:55 -2.7 °C -8.6 °C 34327.3 hPa North 11.9 km/h 11.9 km/h 52 % 0 mm 552.0 W/m2 CLR
18:00 -2.7 °C -8.5 °C 34327.3 hPa NE 11.9 km/h 11.9 km/h 53 % 0 mm 689.0 W/m2 CLR
18:05 -2.9 °C -8.2 °C 34337.4 hPa NNE 18.2 km/h 18.2 km/h 56 % 0 mm 69.0 W/m2 CLR
18:10 -3.2 °C -8.3 °C 34337.4 hPa North 23.8 km/h 23.8 km/h 57 % 0 mm 60.0 W/m2 FEW
18:15 -3.6 °C -8.6 °C 34337.4 hPa North 28.5 km/h 28.5 km/h 58 % 0 mm 84.0 W/m2 FEW
18:20 -3.8 °C -8.4 °C 34337.4 hPa North 35.7 km/h 35.7 km/h 60 % 0 mm 63.0 W/m2 FEW
18:25 -4 °C -8.6 °C 34327.3 hPa NNE 32.8 km/h 32.8 km/h 60 % 0 mm 23.0 W/m2 SCT
18:30 -4.1 °C -8.7 °C 34337.4 hPa NNE 29.8 km/h 29.8 km/h 60 % 0 mm 16.0 W/m2 BKN
18:35 -4.4 °C -8.3 °C 34361.1 hPa NNW 26.9 km/h 26.9 km/h 65 % 0 mm 9.0 W/m2 BKN
18:40 -4.7 °C -8.3 °C 34371.3 hPa North 29.8 km/h 29.8 km/h 67 % 0 mm 7.0 W/m2 BKN
18:45 -4.8 °C -8.4 °C 34361.1 hPa NNW 15 km/h 15 km/h 67 % 0 mm 7.0 W/m2 BKN
18:50 -4.9 °C -8.4 °C 34361.1 hPa NNW 15.6 km/h 15.6 km/h 68 % 0 mm 5.0 W/m2 BKN
18:55 -4.9 °C -8.3 °C 34371.3 hPa NNW 9 km/h 9 km/h 69 % 0 mm 5.0 W/m2 BKN
19:00 -5.1 °C -8.2 °C 34371.3 hPa NW 9 km/h   70 % 0 mm 7.0 W/m2 BKN
19:05 -5.1 °C -8.3 °C 34361.1 hPa NNW 12.9 km/h 12.9 km/h 70 % 0 mm 7.0 W/m2 BKN
19:10 -5.1 °C -8.3 °C 34361.1 hPa NW 15.6 km/h 15.6 km/h 70 % 0 mm 9.0 W/m2 BKN
19:15 -5.2 °C -8.5 °C 34371.3 hPa NW 23.8 km/h 23.8 km/h 69 % 0 mm 12.0 W/m2 BKN
19:20 -5.2 °C -8.7 °C 34384.8 hPa NNW 29.8 km/h 29.8 km/h 68 % 0 mm 16.0 W/m2 BKN
19:25 -5.6 °C -8.2 °C 34384.8 hPa WNW 47.6 km/h 47.6 km/h 74 % 0 mm 21.0 W/m2 BKN
19:30 -6.1 °C -8.3 °C 34384.8 hPa WNW 38.8 km/h 38.8 km/h 78 % 0 mm 33.0 W/m2 BKN
19:35 -6.4 °C -8.4 °C 34384.8 hPa WNW 38.8 km/h 38.8 km/h 80 % 0 mm 47.0 W/m2 BKN
19:40 -6.5 °C -8.4 °C 34395 hPa WNW 20.8 km/h 20.8 km/h 81 % 0 mm 58.0 W/m2 SCT
19:45 -6.6 °C -8.4 °C 34395 hPa West 15.6 km/h 15.6 km/h 81 % 0 mm 53.0 W/m2 SCT
19:50 -6.6 °C -8.4 °C 34395 hPa WNW 20.9 km/h 20.9 km/h 81 % 0 mm 49.0 W/m2 SCT
19:55 -6.6 °C -8.5 °C 34395 hPa West 15 km/h 15 km/h 81 % 0 mm 56.0 W/m2 SCT
20:00 -6.6 °C -8.5 °C 34405.1 hPa West 9 km/h 9 km/h 81 % 0 mm 51.0 W/m2 SCT
20:05 -6.6 °C -8.4 °C 34405.1 hPa Calm     82 % 0 mm 44.0 W/m2 SCT
20:10 -6.6 °C -8.4 °C 34418.7 hPa West 23.8 km/h 23.8 km/h 82 % 0 mm 39.0 W/m2 BKN
20:11 -6.6 °C -8.4 °C 34418.7 hPa WNW 11.9 km/h 11.9 km/h 82 % 0 mm 39.0 W/m2 BKN
20:16 -6.6 °C -8.4 °C 34418.7 hPa WNW 17.9 km/h 17.9 km/h 82 % 0 mm 44.0 W/m2 BKN
20:21 -6.7 °C -8.4 °C 34418.7 hPa NNW 23.3 km/h 23.3 km/h 82 % 0 mm 49.0 W/m2 BKN
20:26 -6.7 °C -8.6 °C 34418.7 hPa NW 20.9 km/h 20.9 km/h 81 % 0 mm 54.0 W/m2 SCT
20:31 -6.6 °C -8.6 °C 34418.7 hPa NW 23.8 km/h 23.8 km/h 80 % 0 mm 60.0 W/m2 SCT
20:36 -6.6 °C -8.5 °C 34418.7 hPa NW 23.8 km/h 23.8 km/h 81 % 0 mm 74.0 W/m2 FEW
20:41 -6.6 °C -8.6 °C 34428.8 hPa WNW 15 km/h 15 km/h 80 % 0 mm 81.0 W/m2 FEW
20:46 -6.6 °C -8.6 °C 34418.7 hPa NW 23.8 km/h 23.8 km/h 80 % 0 mm 62.0 W/m2 SCT
20:51 -6.6 °C -8.5 °C 34428.8 hPa NW 26.9 km/h 26.9 km/h 80 % 0 mm 33.0 W/m2 BKN
20:56 -6.6 °C -8.6 °C 34428.8 hPa WNW 23.3 km/h 23.3 km/h 80 % 0 mm 19.0 W/m2 BKN
21:01 -6.6 °C -8.7 °C 34428.8 hPa WNW 23.3 km/h 23.3 km/h 79 % 0 mm 18.0 W/m2 BKN
21:06 -6.6 °C -8.6 °C 34428.8 hPa West 41.7 km/h 41.7 km/h 80 % 0 mm 18.0 W/m2 BKN
21:11 -6.7 °C -8.6 °C 34428.8 hPa West 32.8 km/h 32.8 km/h 81 % 0 mm 23.0 W/m2 BKN
21:16 -6.8 °C -8.7 °C 34442.4 hPa WNW 32.8 km/h 32.8 km/h 81 % 0 mm 19.0 W/m2 BKN
21:21 -6.9 °C -8.7 °C 34442.4 hPa NW 9 km/h 9 km/h 81 % 0 mm 14.0 W/m2 BKN
21:22 -6.9 °C -8.7 °C 34442.4 hPa NNW 9 km/h 9 km/h 81 % 0 mm 14.0 W/m2 BKN
21:26 -6.9 °C -8.9 °C 34442.4 hPa NW 15.6 km/h 15.6 km/h 80 % 0 mm 11.0 W/m2 BKN
21:32 -7 °C -9 °C 34442.4 hPa NW 15 km/h 15 km/h 80 % 0 mm 7.0 W/m2 OVC
21:37 -7.1 °C -9 °C 34442.4 hPa NNW 15.6 km/h 15.6 km/h 80 % 0 mm 0.0 W/m2 OVC
21:42 -7.1 °C -8.9 °C 34442.4 hPa NNW 9 km/h 9 km/h 81 % 0 mm 0.0 W/m2 CLR
21:47 -7.2 °C -9 °C 34442.4 hPa WNW 15 km/h 15 km/h 81 % 0 mm 0.0 W/m2 CLR
21:52 -7.2 °C -9.1 °C 34452.6 hPa WNW 15.6 km/h 15.6 km/h 81 % 0 mm 0.0 W/m2 CLR
21:57 -7.2 °C -9.3 °C 34452.6 hPa NW 32.8 km/h 32.8 km/h 79 % 0 mm 0.0 W/m2 CLR
22:02 -7.3 °C -9.4 °C 34452.6 hPa NW 29.8 km/h 29.8 km/h 79 % 0 mm 0.0 W/m2 CLR
22:07 -7.4 °C -9.6 °C 34462.7 hPa NW 38.8 km/h 38.8 km/h 78 % 0 mm 0.0 W/m2 CLR
22:12 -7.5 °C -9.7 °C 34476.3 hPa NW 32.8 km/h 32.8 km/h 78 % 0 mm 0.0 W/m2 CLR
22:17 -7.6 °C -9.6 °C 34476.3 hPa WNW 29.8 km/h 29.8 km/h 79 % 0 mm 0.0 W/m2 CLR
22:22 -7.6 °C -9.7 °C 34476.3 hPa WNW 20.9 km/h 20.9 km/h 79 % 0 mm 0.0 W/m2 CLR
22:27 -7.7 °C -9.6 °C 34486.4 hPa WNW 9 km/h   80 % 0 mm 0.0 W/m2 CLR
22:32 -7.7 °C -9.7 °C 34486.4 hPa Calm     80 % 0 mm 0.0 W/m2 CLR
22:37 -7.8 °C -9.7 °C 34486.4 hPa Calm     80 % 0 mm 0.0 W/m2 CLR
22:42 -7.8 °C -9.8 °C 34486.4 hPa West 10.3 km/h 10.3 km/h 80 % 0 mm 0.0 W/m2 CLR
22:47 -7.8 °C -9.8 °C 34486.4 hPa WNW 17.9 km/h 17.9 km/h 80 % 0 mm 0.0 W/m2 CLR
22:52 -7.8 °C -9.8 °C 34486.4 hPa Calm     80 % 0 mm 0.0 W/m2 CLR
22:57 -7.8 °C -9.8 °C 34496.6 hPa West 12.9 km/h 12.9 km/h 80 % 0 mm 0.0 W/m2 CLR
23:02 -7.9 °C -9.8 °C 34486.4 hPa Calm     80 % 0 mm 0.0 W/m2 CLR
23:07 -7.9 °C -9.7 °C 34496.6 hPa Calm     81 % 0 mm 0.0 W/m2 CLR
23:12 -7.9 °C -9.8 °C 34496.6 hPa Calm     81 % 0 mm 0.0 W/m2 CLR
23:17 -7.9 °C -9.8 °C 34496.6 hPa Calm     81 % 0 mm 0.0 W/m2 CLR
23:22 -7.9 °C -9.7 °C 34496.6 hPa Calm     81 % 0 mm 0.0 W/m2 CLR
23:27 -7.9 °C -9.8 °C 34510.1 hPa Calm     80 % 0 mm 0.0 W/m2 CLR
23:32 -7.9 °C -9.7 °C 34510.1 hPa Calm     81 % 0 mm 0.0 W/m2 CLR
23:37 -7.9 °C -9.6 °C 34496.6 hPa Calm     82 % 0 mm 0.0 W/m2 CLR
23:42 -7.9 °C -9.7 °C 34510.1 hPa Calm     81 % 0 mm 0.0 W/m2 CLR
23:47 -7.8 °C -9.7 °C 34496.6 hPa Calm     81 % 0 mm 0.0 W/m2 CLR
23:52 -7.8 °C -9.7 °C 34496.6 hPa Calm     81 % 0 mm 0.0 W/m2 CLR
23:57 -7.8 °C -9.7 °C 34496.6 hPa Calm     80 % 0 mm 0.0 W/m2 CLR
Lo Temps de Massalio
Compliments of Weather Underground - 1.25 mb